Wind_Speed
4 4 5 7 8 10 11 13 14 15 17 18 19 19 20 20 21 21 20 19 18 17 15 13 13 13 13 13 14 14 15 16 17 19 20 22 23 24 24 26 28 27 28
4 5 5 6 8 9 10 12 14 15 17 18 19 19 20 20 21 21 20 19 18 17 15 13 12 11 11 11 11 11 13 14 16 18 19 21 23 23 24 24 27 27 28
5 5 6 6 7 9 10 12 14 16 17 19 19 20 20 21 21 21 20 19 18 16 15 13 11 10 10 10 10 9 10 12 14 16 18 20 21 22 23 24 25 28 28
6 6 6 7 7 8 10 12 14 16 17 18 19 19 20 21 21 21 20 19 18 17 15 14 12 10 9 9 8 8 9 10 12 14 16 17 19 20 21 22 24 26 28
7 7 7 7 8 9 10 11 13 15 17 18 19 19 20 21 21 21 21 19 18 17 15 14 12 11 10 8 7 7 7 9 10 12 14 16 16 18 19 21 23 25 26
8 7 7 7 8 9 10 11 13 15 16 18 19 19 20 20 21 21 21 20 19 17 16 14 12 11 9 8 7 6 6 7 9 11 13 14 15 17 19 19 21 23 25
8 8 8 8 8 9 10 11 12 14 16 17 18 19 20 20 20 21 21 20 19 17 17 15 13 11 9 8 6 5 4 5 7 9 11 13 14 16 18 19 20 20 23
9 9 8 8 9 9 10 11 12 13 15 16 17 19 20 20 20 21 21 21 19 18 17 15 13 11 9 8 6 5 4 4 5 7 9 10 12 14 15 18 19 20 21
9 9 9 9 9 9 10 11 12 13 14 15 17 18 19 20 20 20 21 21 20 19 18 16 14 11 9 8 6 5 4 3 3 4 6 7 9 10 13 15 17 17 18
10 10 10 10 9 9 10 11 11 12 13 14 16 17 18 19 20 20 20 20 20 19 19 17 15 12 10 9 7 5 4 3 2 3 4 6 7 8 10 12 14 15 17
11 11 11 10 10 10 10 10 11 12 13 14 15 16 17 18 19 20 20 20 20 19 18 17 16 13 11 9 8 6 4 3 3 3 4 5 6 6 8 11 12 13 14
12 12 11 11 10 10 10 10 11 11 12 13 14 15 16 18 18 19 20 20 19 19 18 17 16 15 13 10 9 7 5 3 3 3 4 5 5 6 7 9 11 12 12
12 12 12 12 11 11 11 11 11 11 12 13 14 14 15 17 18 18 19 19 19 19 18 17 16 15 14 12 10 8 6 4 3 3 4 4 5 6 7 8 10 11 12
13 13 13 13 12 12 12 11 11 12 12 13 14 14 15 16 17 18 18 18 18 18 17 17 16 15 14 12 11 9 8 6 5 4 4 5 6 6 7 9 10 11 12
15 15 14 14 14 13 13 12 12 12 13 13 14 14 15 15 16 17 17 17 18 18 17 17 16 15 14 13 12 11 9 7 6 5 5 5 6 7 8 9 9 10 11
16 16 15 15 15 14 14 14 13 13 13 13 14 14 15 15 16 16 16 16 17 17 17 16 16 15 14 13 12 12 11 9 8 7 6 6 6 7 8 9 10 10 11
17 17 17 16 16 16 15 15 15 14 14 14 14 15 15 15 15 15 16 16 16 16 17 16 16 15 14 13 12 12 11 10 9 8 7 7 7 7 7 8 9 10 11
18 18 18 18 18 17 17 16 16 16 15 15 15 15 15 15 16 16 15 16 16 16 16 16 16 15 15 14 13 12 12 11 10 9 9 9 9 8 9 10 10 10 11
19 19 19 19 19 19 18 18 17 17 17 16 16 16 16 16 16 16 16 16 16 16 16 16 16 15 15 14 14 13 13 12 12 11 10 10 10 10 10 10 11 11 12
20 20 20 20 20 20 20 20 19 19 18 18 18 17 17 17 17 16 16 16 16 16 16 16 16 16 15 15 15 14 14 14 13 13 12 12 12 12 11 11 12 12 13
21 22 22 22 22 22 22 22 21 21 20 20 19 19 19 18 18 17 17 17 17 17 17 17 17 16 16 16 16 15 15 14 14 14 14 14 14 13 13 13 13 14 14
23 23 23 24 24 24 24 23 23 22 22 21 21 21 20 19 19 19 18 18 18 18 18 18 17 17 17 17 17 16 16 16 15 16 16 16 15 15 15 14 15 15 16
25 25 25 25 25 25 26 25 25 25 24 23 23 22 22 21 21 20 20 20 19 19 19 19 19 18 18 18 18 18 17 17 17 17 17 17 17 17 16 16 16 16 17
28 27 27 27 27 27 27 27 27 27 26 25 25 24 24 23 23 22 22 22 21 21 21 20 20 20 20 19 19 19 19 19 19 19 19 19 19 18 18 18 18 18 18
30 30 30 29 29 29 29 29 29 28 28 28 27 26 26 25 25 24 24 24 23 23 22 22 22 21 21 21 21 21 21 21 21 21 21 20 20 20 20 20 19 19 19
33 32 32 32 31 31 31 31 31 30 30 30 29 29 28 27 27 26 26 25 25 24 24 24 24 23 23 23 23 23 23 23 23 23 22 22 22 22 22 21 21 21 21
Wind_Direction
278 293 310 325 330 335 340 343 346 348 348 349 348 347 347 345 344 344 341 338 335 333 328 318 307 299 291 284 276 266 255 247 241 234 231 228 225 226 225 224 223 224 222
277 291 308 322 330 338 343 345 347 349 349 350 350 349 349 348 347 346 345 343 339 336 332 328 319 309 299 292 282 269 254 246 240 234 230 226 223 224 224 224 223 222 221
274 284 302 319 329 337 341 344 346 348 349 350 350 350 350 350 349 348 347 346 344 341 338 335 330 321 309 300 289 273 256 247 240 234 229 227 226 225 223 223 222 222 222
275 285 300 313 323 331 337 340 343 346 348 350 351 352 352 351 350 350 349 347 347 345 343 340 335 328 320 312 298 277 260 249 241 233 227 225 227 227 226 224 223 224 223
272 283 294 306 318 325 331 337 341 345 347 350 352 352 353 353 353 353 353 351 349 349 347 344 339 333 323 315 303 281 263 251 242 233 229 226 226 227 227 224 224 224 223
270 279 289 301 313 321 328 334 338 343 346 350 352 353 353 354 355 356 356 355 353 352 350 347 343 340 333 323 312 292 271 253 242 234 230 227 226 230 229 226 226 225 225
268 276 285 296 307 316 323 330 336 341 345 349 352 354 355 356 357 358 359 358 357 356 354 352 349 346 343 337 326 309 286 258 244 237 233 229 230 231 230 228 228 228 229
269 275 282 291 301 310 318 326 333 338 343 348 352 355 357 357 358 360 1 1 1 0 358 357 354 351 347 343 341 332 307 269 251 242 238 232 235 232 233 231 229 231 232
270 274 280 287 296 304 313 322 330 336 341 346 351 354 357 359 360 1 2 3 4 4 3 2 0 357 353 347 342 338 327 298 261 241 237 234 234 234 232 230 230 232 234
271 273 278 284 291 299 308 318 326 333 338 343 348 353 356 358 0 2 2 3 5 6 7 6 5 2 0 358 355 348 336 319 285 255 247 237 235 236 231 230 233 236 236
271 273 275 280 286 294 303 312 321 329 335 340 345 349 354 357 359 2 2 3 4 5 6 7 9 7 4 2 360 354 341 321 301 277 261 258 254 243 234 234 235 237 238
271 272 274 276 281 288 298 307 316 324 330 336 341 345 351 355 357 0 2 4 5 5 5 6 9 11 10 6 3 360 350 335 312 289 273 267 262 251 240 238 239 240 242
271 272 272 274 277 284 293 302 310 318 325 331 336 341 346 351 355 358 1 3 4 6 6 7 8 10 11 11 8 6 2 346 325 306 287 269 261 255 251 246 246 248 247
271 270 270 270 274 280 288 296 303 311 319 325 331 336 341 346 350 354 357 360 2 4 6 7 8 9 10 12 13 11 8 359 343 324 298 278 267 262 255 252 252 252 251
269 269 269 269 270 276 283 290 297 304 311 318 324 330 334 339 344 348 352 355 358 360 2 4 6 7 7 8 10 10 7 1 350 336 316 296 282 273 266 260 258 260 261
270 269 269 268 268 271 277 284 291 297 304 310 316 322 328 333 337 341 345 349 352 355 358 360 1 2 3 3 3 3 3 359 353 344 331 320 308 294 281 271 267 267 266
271 269 268 268 267 268 273 279 285 290 297 303 308 315 320 326 330 334 338 342 346 349 352 355 357 357 357 357 356 357 356 354 350 342 333 325 319 309 294 283 275 273 272
270 269 268 268 267 267 270 275 280 285 290 296 301 306 312 318 323 326 330 335 338 340 344 347 349 351 351 350 348 348 347 346 345 338 329 322 314 307 300 293 283 277 276
270 269 268 268 267 267 269 272 276 281 286 290 295 300 305 310 314 318 322 327 331 333 335 338 340 342 344 343 342 341 340 339 337 332 326 322 316 308 300 295 288 282 280
269 268 267 267 267 267 268 269 273 277 282 285 289 294 298 303 307 310 314 319 323 327 328 330 332 334 336 336 335 335 334 332 331 329 324 321 317 309 302 298 293 287 285
269 267 266 266 266 266 267 268 270 274 278 281 285 289 292 296 300 303 306 310 314 318 321 323 324 327 328 329 329 329 329 327 325 324 323 321 316 310 305 300 297 293 288
270 268 267 266 265 265 266 267 269 271 274 278 281 284 287 290 294 297 300 302 306 310 313 316 317 320 322 322 322 322 322 322 320 320 319 318 315 310 306 301 297 294 291
269 268 267 266 265 264 265 266 268 269 271 274 277 279 282 285 288 291 294 296 299 303 306 308 311 313 315 316 317 318 316 315 315 315 314 313 311 308 305 301 298 295 292
269 268 268 267 265 264 264 265 266 267 269 271 274 276 279 281 284 287 290 292 294 297 299 301 304 307 308 310 311 312 312 313 312 312 311 310 308 306 304 301 298 295 292
269 268 268 267 265 264 264 265 266 267 268 270 271 274 276 279 281 283 285 288 290 292 294 296 299 301 303 304 305 306 307 308 309 309 308 308 306 304 302 300 298 296 293
269 268 267 266 265 264 264 264 265 266 267 269 270 272 273 275 278 279 281 283 285 287 289 292 294 296 298 299 301 302 303 304 304 305 305 304 303 301 300 299 297 295 293
Height
5842 5842 5842 5841 5841 5839 5838 5836 5834 5831 5828 5825 5821 5817 5814 5810 5805 5801 5797 5793 5789 5785 5782 5780 5779 5778 5777 5776 5776 5776 5778 5779 5782 5785 5788 5792 5795 5799 5803 5807 5812 5816 5820
5841 5841 5841 5840 5840 5838 5837 5835 5833 5830 5827 5824 5820 5816 5812 5808 5804 5799 5795 5791 5787 5784 5781 5778 5776 5775 5774 5773 5772 5773 5774 5775 5778 5780 5783 5787 5791 5794 5799 5803 5807 5811 5815
5840 5840 5840 5839 5839 5837 5836 5834 5832 5829 5826 5823 5819 5815 5811 5807 5803 5798 5794 5790 5786 5782 5779 5777 5774 5773 5771 5770 5770 5770 5771 5772 5774 5776 5780 5783 5786 5790 5794 5798 5802 5807 5811
5839 5839 5839 5838 5837 5836 5835 5833 5831 5828 5825 5822 5818 5814 5810 5806 5802 5798 5793 5789 5785 5781 5778 5775 5773 5771 5770 5768 5767 5767 5768 5769 5771 5773 5776 5779 5782 5786 5790 5794 5797 5801 5806
5838 5838 5838 5837 5836 5835 5834 5832 5830 5827 5824 5821 5818 5814 5810 5806 5801 5797 5792 5788 5784 5781 5777 5774 5772 5770 5768 5767 5766 5765 5765 5767 5768 5770 5773 5776 5779 5782 5786 5790 5793 5797 5801
5836 5836 5836 5836 5835 5834 5833 5831 5829 5827 5824 5820 5817 5813 5809 5805 5801 5797 5792 5788 5784 5780 5777 5773 5771 5768 5766 5765 5764 5763 5763 5764 5766 5768 5770 5773 5776 5779 5782 5786 5789 5793 5796
5835 5835 5835 5835 5834 5833 5831 5830 5828 5826 5823 5820 5817 5813 5809 5805 5801 5796 5792 5788 5783 5780 5776 5773 5770 5768 5766 5764 5763 5762 5762 5763 5764 5766 5768 5770 5773 5775 5778 5782 5785 5788 5792
5833 5833 5833 5833 5832 5831 5830 5829 5827 5824 5822 5819 5816 5813 5809 5805 5801 5797 5792 5788 5784 5780 5776 5772 5769 5767 5765 5764 5762 5762 5762 5762 5763 5764 5766 5768 5770 5772 5775 5778 5781 5785 5788
5832 5832 5832 5831 5831 5830 5829 5827 5826 5823 5821 5818 5816 5812 5809 5805 5801 5797 5792 5788 5784 5780 5776 5773 5770 5767 5765 5763 5762 5762 5761 5761 5762 5763 5764 5766 5767 5770 5772 5775 5778 5781 5784
5830 5830 5830 5829 5829 5828 5827 5826 5824 5822 5820 5818 5815 5812 5809 5805 5801 5797 5793 5789 5785 5781 5777 5773 5770 5768 5765 5764 5762 5761 5761 5761 5762 5762 5763 5765 5766 5767 5769 5772 5774 5777 5780
5827 5828 5828 5827 5827 5826 5826 5824 5823 5821 5819 5817 5814 5812 5808 5805 5801 5797 5793 5789 5785 5782 5778 5775 5771 5768 5766 5764 5763 5762 5761 5761 5761 5762 5763 5763 5764 5765 5767 5769 5771 5773 5776
5825 5825 5825 5825 5825 5824 5824 5823 5821 5820 5818 5816 5813 5811 5808 5805 5801 5798 5794 5790 5786 5782 5779 5776 5772 5770 5767 5765 5763 5762 5761 5761 5761 5762 5762 5762 5763 5764 5765 5767 5769 5770 5772
5822 5822 5823 5823 5823 5822 5821 5821 5820 5818 5816 5815 5812 5810 5807 5805 5801 5798 5794 5791 5787 5783 5780 5776 5773 5771 5768 5766 5764 5763 5762 5761 5761 5761 5761 5761 5762 5763 5764 5765 5767 5768 5769
5819 5820 5820 5820 5820 5820 5819 5818 5818 5816 5815 5813 5811 5809 5807 5804 5801 5798 5795 5791 5788 5784 5781 5778 5775 5772 5769 5767 5765 5763 5762 5761 5761 5760 5760 5761 5761 5761 5762 5763 5764 5765 5766
5816 5816 5816 5817 5817 5817 5816 5816 5815 5814 5813 5811 5810 5808 5805 5803 5800 5797 5794 5791 5788 5785 5782 5778 5775 5773 5770 5768 5766 5764 5763 5762 5761 5760 5760 5759 5760 5760 5760 5761 5761 5762 5763
5813 5813 5813 5813 5813 5813 5813 5813 5812 5812 5810 5809 5808 5806 5804 5802 5799 5797 5794 5791 5788 5785 5782 5779 5776 5773 5771 5769 5766 5765 5763 5762 5760 5760 5759 5759 5758 5758 5758 5759 5759 5760 5760
5809 5809 5809 5809 5809 5809 5809 5809 5809 5808 5808 5807 5805 5804 5802 5800 5798 5795 5793 5790 5787 5785 5782 5779 5776 5774 5771 5769 5767 5765 5763 5762 5760 5759 5758 5758 5757 5757 5756 5756 5756 5756 5757
5804 5804 5804 5805 5805 5805 5805 5805 5805 5805 5804 5803 5802 5801 5799 5797 5795 5793 5791 5789 5786 5784 5781 5779 5776 5774 5771 5769 5767 5765 5763 5762 5760 5759 5757 5757 5756 5755 5754 5754 5753 5753 5753
5800 5800 5800 5800 5800 5800 5801 5801 5801 5801 5800 5800 5799 5797 5796 5794 5793 5791 5789 5787 5784 5782 5780 5777 5775 5773 5770 5768 5766 5764 5762 5760 5759 5757 5756 5755 5753 5753 5752 5751 5750 5750 5750
5795 5795 5795 5795 5795 5795 5796 5796 5796 5796 5796 5795 5794 5793 5792 5791 5789 5788 5786 5784 5782 5780 5778 5775 5773 5771 5769 5767 5764 5762 5760 5759 5757 5755 5754 5752 5751 5750 5749 5748 5747 5747 5746
5789 5789 5789 5789 5790 5790 5790 5790 5791 5791 5791 5790 5790 5789 5788 5787 5786 5784 5782 5781 5779 5777 5775 5773 5771 5769 5767 5764 5762 5760 5758 5757 5755 5753 5751 5750 5748 5747 5746 5745 5744 5743 5742
5783 5783 5783 5783 5784 5784 5784 5784 5785 5785 5785 5784 5784 5784 5783 5782 5781 5780 5778 5777 5775 5773 5772 5770 5768 5766 5764 5762 5759 5757 5755 5754 5752 5750 5748 5746 5745 5743 5742 5741 5740 5739 5738
5776 5776 5776 5777 5777 5777 5777 5778 5778 5778 5778 5778 5778 5777 5777 5776 5775 5774 5773 5772 5771 5769 5768 5766 5764 5762 5760 5758 5756 5754 5752 5750 5748 5746 5745 5743 5741 5739 5738 5736 5735 5734 5733
5769 5769 5769 5769 5769 5769 5770 5770 5771 5771 5771 5771 5771 5771 5770 5770 5769 5768 5767 5766 5765 5764 5762 5761 5759 5758 5756 5754 5752 5750 5748 5746 5744 5742 5740 5738 5737 5735 5733 5732 5730 5729 5728
5760 5760 5760 5761 5761 5761 5762 5762 5762 5763 5763 5763 5763 5763 5763 5763 5762 5762 5761 5760 5759 5758 5757 5755 5754 5752 5751 5749 5747 5745 5743 5741 5739 5737 5735 5734 5732 5730 5728 5727 5725 5724 5723
5751 5751 5751 5751 5752 5752 5753 5753 5754 5754 5754 5755 5755 5755 5755 5755 5755 5754 5753 5753 5752 5751 5750 5749 5748 5746 5745 5743 5741 5739 5737 5735 5734 5732 5730 5728 5726 5724 5722 5721 5719 5718 5716